CFG93H LIMC-ELLX

Flight info

Callsign CFG93H
Flight time 1h 8m
Altitude 34000
Route AOSTA DCT ORSUD DCT MOLUS DCT GILIR DCT PENDU DCT IXILU DCT EPL G21 GIVOR
Aircraft A320/M-SDE3FGHIRWY/LB1

Departure

Time 2026-05-07 15:45
Airport Milan Malpensa International Airport (LIMC)

Arrival

Time 2026-05-07 16:53
Airport Luxembourg-Findel International Airport (ELLX)
Time Latitude Longitude Altitude Speed Heading
2026-05-07 14:55 45.63084 8.71591 736 ft 0 kts 259°
2026-05-07 15:27 45.63084 8.71592 736 ft 1 kts 259°
2026-05-07 15:27 45.63087 8.71614 733 ft 3 kts 257°
2026-05-07 15:28 45.63092 8.71642 735 ft 3 kts 251°
2026-05-07 15:28 45.63099 8.71668 734 ft 3 kts 241°
2026-05-07 15:28 45.63110 8.71691 734 ft 3 kts 214°
2026-05-07 15:28 45.63123 8.71700 735 ft 1 kts 168°
2026-05-07 15:29 45.63129 8.71698 735 ft 0 kts 167°
2026-05-07 15:33 45.63093 8.71709 736 ft 6 kts 169°
2026-05-07 15:33 45.63038 8.71724 735 ft 11 kts 169°
2026-05-07 15:33 45.62974 8.71758 736 ft 8 kts 126°
2026-05-07 15:34 45.62975 8.71831 736 ft 7 kts 77°
2026-05-07 15:34 45.62985 8.71896 736 ft 7 kts 79°
2026-05-07 15:34 45.62993 8.71962 736 ft 9 kts 79°
2026-05-07 15:34 45.62984 8.72043 736 ft 7 kts 135°
2026-05-07 15:35 45.62932 8.72064 736 ft 11 kts 170°
2026-05-07 15:35 45.62824 8.72094 737 ft 21 kts 168°
2026-05-07 15:35 45.62656 8.72141 736 ft 26 kts 169°
2026-05-07 15:35 45.62474 8.72190 737 ft 27 kts 169°
2026-05-07 15:36 45.62283 8.72243 737 ft 28 kts 169°
2026-05-07 15:36 45.62222 8.72282 737 ft 5 kts 115°
2026-05-07 15:36 45.62223 8.72327 737 ft 4 kts 80°
2026-05-07 15:36 45.62230 8.72377 738 ft 10 kts 79°
2026-05-07 15:37 45.62249 8.72520 738 ft 18 kts 79°
2026-05-07 15:37 45.62274 8.72706 737 ft 20 kts 79°
2026-05-07 15:37 45.62301 8.72907 737 ft 12 kts 79°
2026-05-07 15:37 45.62305 8.72988 737 ft 7 kts 107°
2026-05-07 15:38 45.62270 8.73027 737 ft 6 kts 159°
2026-05-07 15:38 45.62234 8.73039 737 ft 5 kts 169°
2026-05-07 15:38 45.62185 8.73052 736 ft 14 kts 169°
2026-05-07 15:38 45.62057 8.73088 737 ft 20 kts 169°
2026-05-07 15:39 45.61911 8.73128 737 ft 22 kts 169°
2026-05-07 15:39 45.61780 8.73165 737 ft 9 kts 161°
2026-05-07 15:39 45.61736 8.73217 737 ft 8 kts 128°
2026-05-07 15:39 45.61708 8.73275 736 ft 7 kts 124°
2026-05-07 15:40 45.61685 8.73324 735 ft 5 kts 124°
2026-05-07 15:40 45.61665 8.73365 737 ft 4 kts 123°
2026-05-07 15:40 45.61650 8.73398 737 ft 4 kts 123°
2026-05-07 15:40 45.61638 8.73423 736 ft 3 kts 124°
2026-05-07 15:41 45.61629 8.73443 737 ft 3 kts 124°
2026-05-07 15:41 45.61602 8.73499 737 ft 8 kts 122°
2026-05-07 15:41 45.61587 8.73565 737 ft 6 kts 99°
2026-05-07 15:41 45.61585 8.73593 737 ft 0 kts 92°
2026-05-07 15:43 45.61591 8.73672 736 ft 13 kts 77°
2026-05-07 15:43 45.61618 8.73744 736 ft 6 kts 11°
2026-05-07 15:43 45.61637 8.73735 737 ft 0 kts 344°
2026-05-07 15:44 45.61830 8.73679 737 ft 69 kts 349°
2026-05-07 15:44 45.62537 8.73483 739 ft 135 kts 349°
2026-05-07 15:44 45.63635 8.73171 847 ft 175 kts 348°
2026-05-07 15:45 45.64834 8.73050 1648 ft 175 kts
2026-05-07 15:45 45.65896 8.73867 2415 ft 177 kts 47°
2026-05-07 15:45 45.66741 8.75157 3162 ft 178 kts 47°
2026-05-07 15:45 45.67590 8.76416 3947 ft 177 kts 46°
2026-05-07 15:46 45.69454 8.79140 5026 ft 200 kts 45°
2026-05-07 15:46 45.70438 8.80565 5719 ft 203 kts 45°
2026-05-07 15:46 45.71436 8.82004 6391 ft 204 kts 46°
2026-05-07 15:47 45.72265 8.83656 7033 ft 207 kts 65°
2026-05-07 15:47 45.72670 8.85637 7696 ft 210 kts 84°
2026-05-07 15:47 45.72588 8.87727 8367 ft 213 kts 103°
2026-05-07 15:47 45.72024 8.89654 9031 ft 216 kts 123°
2026-05-07 15:48 45.71006 8.91240 9695 ft 218 kts 144°
2026-05-07 15:48 45.69637 8.92250 10187 ft 232 kts 165°
2026-05-07 15:48 45.67964 8.92473 10553 ft 251 kts 189°
2026-05-07 15:48 45.66294 8.91681 11258 ft 257 kts 213°
2026-05-07 15:49 45.64961 8.90008 12099 ft 257 kts 236°
2026-05-07 15:49 45.64210 8.87712 12987 ft 257 kts 259°
2026-05-07 15:49 45.64086 8.85171 13874 ft 258 kts 270°
2026-05-07 15:49 45.64082 8.82598 14673 ft 260 kts 270°
2026-05-07 15:50 45.64082 8.79999 15462 ft 262 kts 270°
2026-05-07 15:50 45.64083 8.77378 16241 ft 265 kts 270°
2026-05-07 15:50 45.64082 8.74730 17023 ft 268 kts 269°
2026-05-07 15:50 45.63874 8.72058 17654 ft 278 kts 258°
2026-05-07 15:51 45.63446 8.69242 17873 ft 302 kts 258°
2026-05-07 15:51 45.62970 8.66204 18044 ft 325 kts 258°
2026-05-07 15:51 45.62760 8.62901 18250 ft 344 kts 274°
2026-05-07 15:51 45.62961 8.59456 18766 ft 351 kts 275°
2026-05-07 15:52 45.63169 8.55960 19412 ft 355 kts 275°
2026-05-07 15:52 45.63375 8.52435 20088 ft 357 kts 274°
2026-05-07 15:52 45.63581 8.48891 20769 ft 360 kts 274°
2026-05-07 15:52 45.63790 8.45311 21459 ft 362 kts 274°
2026-05-07 15:53 45.63999 8.41708 22140 ft 365 kts 274°
2026-05-07 15:53 45.64208 8.38071 22828 ft 368 kts 274°
2026-05-07 15:53 45.64417 8.34412 23501 ft 371 kts 274°
2026-05-07 15:53 45.64627 8.30731 24076 ft 373 kts 274°
2026-05-07 15:54 45.65000 8.27047 24652 ft 376 kts 281°
2026-05-07 15:54 45.65581 8.23394 25215 ft 377 kts 282°
2026-05-07 15:54 45.66176 8.19731 25770 ft 379 kts 282°
2026-05-07 15:54 45.66776 8.16056 26313 ft 381 kts 282°
2026-05-07 15:55 45.67381 8.12361 26835 ft 382 kts 281°
2026-05-07 15:55 45.67984 8.08651 27347 ft 384 kts 281°
2026-05-07 15:55 45.68584 8.04927 27848 ft 385 kts 281°
2026-05-07 15:55 45.69184 8.01185 28309 ft 388 kts 281°
2026-05-07 15:56 45.69813 7.97418 28806 ft 390 kts 285°
2026-05-07 15:56 45.70971 7.93885 29286 ft 398 kts 301°
2026-05-07 15:56 45.72714 7.90767 29695 ft 403 kts 306°
2026-05-07 15:56 45.74530 7.87702 30115 ft 405 kts 307°
2026-05-07 15:57 45.76367 7.84632 30472 ft 407 kts 306°
2026-05-07 15:57 45.78224 7.81538 30836 ft 410 kts 306°
2026-05-07 15:57 45.80087 7.78425 31116 ft 412 kts 306°
2026-05-07 15:57 45.81958 7.75296 31456 ft 414 kts 307°
2026-05-07 15:58 45.84148 7.72555 31813 ft 425 kts 322°
2026-05-07 15:58 45.86803 7.70624 32216 ft 430 kts 329°
2026-05-07 15:58 45.89534 7.68855 32601 ft 430 kts 330°
2026-05-07 15:58 45.92263 7.67119 33052 ft 429 kts 330°
2026-05-07 15:59 45.94987 7.65397 33551 ft 427 kts 330°
2026-05-07 15:59 45.97705 7.63674 33905 ft 427 kts 330°
2026-05-07 15:59 46.00404 7.61957 33973 ft 419 kts 330°
2026-05-07 16:00 46.05602 7.58627 33969 ft 407 kts 329°
2026-05-07 16:00 46.10785 7.55274 33967 ft 405 kts 329°
2026-05-07 16:01 46.15874 7.51973 33959 ft 404 kts 329°
2026-05-07 16:01 46.21012 7.48642 33954 ft 405 kts 329°
2026-05-07 16:02 46.26151 7.45311 33946 ft 404 kts 330°
2026-05-07 16:02 46.31280 7.41975 33940 ft 403 kts 330°
2026-05-07 16:03 46.36406 7.38633 33952 ft 404 kts 330°
2026-05-07 16:03 46.41538 7.35284 33973 ft 404 kts 330°
2026-05-07 16:04 46.46666 7.31932 33982 ft 405 kts 330°
2026-05-07 16:04 46.51803 7.28566 33995 ft 405 kts 330°
2026-05-07 16:05 46.56928 7.25199 34013 ft 404 kts 330°
2026-05-07 16:05 46.62062 7.21823 34010 ft 405 kts 330°
2026-05-07 16:06 46.67192 7.18435 34011 ft 405 kts 330°
2026-05-07 16:06 46.72328 7.15033 34009 ft 405 kts 330°
2026-05-07 16:07 46.77465 7.11636 34014 ft 406 kts 330°
2026-05-07 16:07 46.82608 7.08227 34015 ft 406 kts 330°
2026-05-07 16:08 46.87759 7.04800 34021 ft 407 kts 331°
2026-05-07 16:08 46.92879 7.01388 34016 ft 407 kts 331°
2026-05-07 16:09 46.98042 6.97938 34008 ft 408 kts 331°
2026-05-07 16:09 47.03205 6.94480 34012 ft 408 kts 331°
2026-05-07 16:10 47.07527 6.91578 34010 ft 408 kts 331°
2026-05-07 16:10 47.12699 6.88106 34011 ft 409 kts 331°
2026-05-07 16:11 47.17870 6.84622 34012 ft 409 kts 331°
2026-05-07 16:11 47.23044 6.81132 34013 ft 409 kts 331°
2026-05-07 16:12 47.28222 6.77631 34015 ft 410 kts 331°
2026-05-07 16:12 47.33400 6.74122 34012 ft 410 kts 331°
2026-05-07 16:13 47.38551 6.70620 34015 ft 410 kts 332°
2026-05-07 16:13 47.43740 6.67085 34015 ft 410 kts 332°
2026-05-07 16:14 47.48924 6.63537 34015 ft 410 kts 332°
2026-05-07 16:14 47.54119 6.59994 34017 ft 411 kts 332°
2026-05-07 16:15 47.59308 6.56447 34017 ft 411 kts 332°
2026-05-07 16:15 47.64501 6.52881 34016 ft 411 kts 332°
2026-05-07 16:16 47.69694 6.49301 34018 ft 411 kts 332°
2026-05-07 16:16 47.74853 6.45747 34017 ft 412 kts 332°
2026-05-07 16:17 47.80053 6.42161 34016 ft 412 kts 332°
2026-05-07 16:17 47.85253 6.38558 34016 ft 412 kts 332°
2026-05-07 16:17 47.87950 6.37104 34018 ft 416 kts 346°
2026-05-07 16:18 47.90848 6.36767 34021 ft 421 kts 358°
2026-05-07 16:18 47.96719 6.36936 33887 ft 424 kts 358°
2026-05-07 16:18 47.99696 6.37036 33611 ft 436 kts 358°
2026-05-07 16:19 48.02787 6.37136 33344 ft 450 kts 359°
2026-05-07 16:19 48.05940 6.37240 33075 ft 455 kts 359°
2026-05-07 16:19 48.09117 6.37345 32806 ft 457 kts 359°
2026-05-07 16:19 48.12292 6.37452 32552 ft 458 kts 359°
2026-05-07 16:20 48.15481 6.37557 32175 ft 458 kts 359°
2026-05-07 16:20 48.18668 6.37655 31604 ft 458 kts 359°
2026-05-07 16:20 48.21857 6.37753 31049 ft 458 kts 359°
2026-05-07 16:20 48.25047 6.37852 30514 ft 459 kts 360°
2026-05-07 16:21 48.28236 6.37951 29940 ft 459 kts 360°
2026-05-07 16:21 48.31432 6.38053 29397 ft 460 kts 360°
2026-05-07 16:21 48.34638 6.38159 28868 ft 461 kts 360°
2026-05-07 16:21 48.37855 6.38264 28349 ft 463 kts 360°
2026-05-07 16:22 48.41075 6.38364 27836 ft 464 kts 360°
2026-05-07 16:22 48.44305 6.38463 27304 ft 465 kts
2026-05-07 16:22 48.47546 6.38564 26771 ft 467 kts
2026-05-07 16:22 48.50759 6.38667 26223 ft 468 kts
2026-05-07 16:23 48.54023 6.38771 25658 ft 470 kts
2026-05-07 16:23 48.57303 6.38872 25070 ft 472 kts
2026-05-07 16:23 48.60591 6.38970 24460 ft 473 kts
2026-05-07 16:23 48.63890 6.39070 23845 ft 475 kts
2026-05-07 16:24 48.67205 6.39195 23165 ft 478 kts
2026-05-07 16:24 48.70531 6.39433 22552 ft 480 kts
2026-05-07 16:24 48.73856 6.39770 21934 ft 478 kts
2026-05-07 16:24 48.77156 6.40158 21333 ft 474 kts
2026-05-07 16:25 48.80431 6.40559 20734 ft 470 kts
2026-05-07 16:25 48.83667 6.40944 19821 ft 464 kts
2026-05-07 16:25 48.86837 6.41297 18936 ft 444 kts
2026-05-07 16:25 48.89813 6.41608 18607 ft 414 kts
2026-05-07 16:26 48.92622 6.41887 18367 ft 398 kts
2026-05-07 16:26 48.95372 6.42152 17992 ft 393 kts
2026-05-07 16:26 48.98088 6.42415 17508 ft 389 kts
2026-05-07 16:26 49.00786 6.42679 17034 ft 388 kts
2026-05-07 16:27 49.03457 6.42947 16561 ft 384 kts
2026-05-07 16:27 49.06118 6.43219 16096 ft 380 kts
2026-05-07 16:27 49.08738 6.43488 15644 ft 378 kts
2026-05-07 16:27 49.11363 6.43759 15132 ft 375 kts
2026-05-07 16:28 49.13965 6.44024 14568 ft 374 kts
2026-05-07 16:28 49.16551 6.44288 14010 ft 372 kts
2026-05-07 16:28 49.19124 6.44551 13413 ft 369 kts
2026-05-07 16:28 49.21674 6.44518 12851 ft 364 kts 351°
2026-05-07 16:29 49.24090 6.43504 12323 ft 358 kts 336°
2026-05-07 16:29 49.26359 6.41970 11720 ft 356 kts 335°
2026-05-07 16:29 49.28612 6.40420 11068 ft 355 kts 335°
2026-05-07 16:29 49.30855 6.38870 10464 ft 353 kts 334°
2026-05-07 16:30 49.33034 6.37366 10390 ft 334 kts 335°
2026-05-07 16:30 49.35097 6.35949 10385 ft 315 kts 335°
2026-05-07 16:30 49.37042 6.34616 10358 ft 298 kts 335°
2026-05-07 16:30 49.38923 6.33487 9974 ft 287 kts 344°
2026-05-07 16:31 49.40880 6.32835 9518 ft 288 kts 347°
2026-05-07 16:31 49.42839 6.32207 9094 ft 287 kts 347°
2026-05-07 16:31 49.44785 6.31581 8685 ft 285 kts 347°
2026-05-07 16:31 49.46714 6.30957 8264 ft 282 kts 347°
2026-05-07 16:32 49.48628 6.30342 7855 ft 280 kts 347°
2026-05-07 16:32 49.50531 6.29778 7453 ft 278 kts 353°
2026-05-07 16:32 49.52433 6.30129 7050 ft 277 kts 20°
2026-05-07 16:32 49.54106 6.31566 6664 ft 275 kts 32°
2026-05-07 16:33 49.55582 6.33351 6258 ft 273 kts 49°
2026-05-07 16:33 49.56655 6.35752 5846 ft 271 kts 57°
2026-05-07 16:33 49.57623 6.38228 5524 ft 265 kts 58°
2026-05-07 16:33 49.58538 6.40612 5390 ft 252 kts 58°
2026-05-07 16:34 49.59404 6.42883 5263 ft 240 kts 58°
2026-05-07 16:34 49.60229 6.45051 5133 ft 228 kts 58°
2026-05-07 16:34 49.61011 6.47113 4995 ft 218 kts 58°
2026-05-07 16:34 49.61975 6.48836 4735 ft 210 kts 30°
2026-05-07 16:35 49.63349 6.49401 4423 ft 205 kts 357°
2026-05-07 16:35 49.64748 6.49159 4230 ft 199 kts 350°
2026-05-07 16:35 49.66057 6.48628 4087 ft 192 kts 338°
2026-05-07 16:35 49.67262 6.47782 3895 ft 189 kts 334°
2026-05-07 16:36 49.68438 6.46892 3661 ft 188 kts 334°
2026-05-07 16:36 49.69547 6.45840 3428 ft 187 kts 314°
2026-05-07 16:36 49.70200 6.44126 3179 ft 188 kts 287°
2026-05-07 16:36 49.70261 6.42118 3019 ft 190 kts 260°
2026-05-07 16:37 49.69712 6.40257 3007 ft 194 kts 234°
2026-05-07 16:37 49.68946 6.38529 3008 ft 195 kts 240°
2026-05-07 16:37 49.68276 6.36707 3008 ft 195 kts 243°
2026-05-07 16:37 49.67621 6.34857 2858 ft 196 kts 243°
2026-05-07 16:38 49.66977 6.33050 2597 ft 187 kts 243°
2026-05-07 16:38 49.66360 6.31343 2318 ft 178 kts 243°
2026-05-07 16:38 49.65772 6.29733 2031 ft 165 kts 243°
2026-05-07 16:38 49.65233 6.28266 1771 ft 149 kts 243°
2026-05-07 16:39 49.64736 6.26918 1548 ft 141 kts 243°
2026-05-07 16:39 49.64257 6.25614 1450 ft 146 kts 242°
2026-05-07 16:39 49.63734 6.24178 2380 ft 154 kts 243°
2026-05-07 16:39 49.63181 6.22654 2912 ft 176 kts 243°
2026-05-07 16:40 49.62524 6.20867 2992 ft 206 kts 242°
2026-05-07 16:40 49.61795 6.18930 2977 ft 211 kts 242°
2026-05-07 16:40 49.61060 6.16990 3002 ft 212 kts 242°
2026-05-07 16:40 49.60316 6.15029 3006 ft 212 kts 242°
2026-05-07 16:41 49.59571 6.13065 3007 ft 212 kts 242°
2026-05-07 16:41 49.59016 6.10993 3045 ft 207 kts 264°
2026-05-07 16:41 49.59141 6.08824 3301 ft 209 kts 292°
2026-05-07 16:41 49.60032 6.06860 3570 ft 243 kts 323°
2026-05-07 16:42 49.61624 6.05930 3826 ft 253 kts 358°
2026-05-07 16:42 49.63385 6.06259 3970 ft 256 kts
2026-05-07 16:42 49.65137 6.06772 4001 ft 256 kts 11°
2026-05-07 16:42 49.66883 6.07306 4008 ft 255 kts 11°
2026-05-07 16:43 49.68626 6.07839 4015 ft 255 kts 10°
2026-05-07 16:43 49.70366 6.08363 4012 ft 255 kts 10°
2026-05-07 16:43 49.72112 6.08880 4007 ft 255 kts 10°
2026-05-07 16:43 49.73854 6.09390 4006 ft 255 kts 10°
2026-05-07 16:44 49.75571 6.09892 4004 ft 243 kts 10°
2026-05-07 16:44 49.77173 6.10360 4003 ft 225 kts
2026-05-07 16:44 49.78653 6.10793 4003 ft 209 kts
2026-05-07 16:44 49.80117 6.11220 4011 ft 220 kts 11°
2026-05-07 16:45 49.81539 6.12132 4012 ft 225 kts 33°
2026-05-07 16:45 49.82636 6.13851 4008 ft 228 kts 56°
2026-05-07 16:45 49.83235 6.16126 4013 ft 231 kts 78°
2026-05-07 16:45 49.83213 6.18616 4001 ft 234 kts 101°
2026-05-07 16:46 49.82555 6.20917 4001 ft 234 kts 123°
2026-05-07 16:46 49.81635 6.22946 3970 ft 230 kts 123°
2026-05-07 16:46 49.80716 6.24977 3704 ft 228 kts 123°
2026-05-07 16:46 49.79807 6.26986 3638 ft 227 kts 123°
2026-05-07 16:47 49.78914 6.28958 3590 ft 218 kts 123°
2026-05-07 16:47 49.78066 6.30829 3529 ft 207 kts 123°
2026-05-07 16:47 49.77254 6.32618 3504 ft 200 kts 123°
2026-05-07 16:47 49.76458 6.34373 3484 ft 198 kts 123°
2026-05-07 16:48 49.75672 6.36110 3427 ft 197 kts 123°
2026-05-07 16:48 49.74887 6.37845 3380 ft 197 kts 123°
2026-05-07 16:48 49.74062 6.39523 3332 ft 197 kts 134°
2026-05-07 16:48 49.72907 6.40646 3290 ft 198 kts 160°
2026-05-07 16:49 49.71551 6.40920 3246 ft 198 kts 186°
2026-05-07 16:49 49.70262 6.40302 3194 ft 189 kts 212°
2026-05-07 16:49 49.69312 6.39039 3111 ft 175 kts 235°
2026-05-07 16:49 49.68695 6.37454 3037 ft 170 kts 244°
2026-05-07 16:50 49.68112 6.35870 2980 ft 171 kts 243°
2026-05-07 16:50 49.67535 6.34318 2758 ft 158 kts 243°
2026-05-07 16:50 49.67182 6.33378 2621 ft 149 kts 243°
2026-05-07 16:50 49.66678 6.32033 2430 ft 142 kts 244°
2026-05-07 16:51 49.66189 6.30730 2219 ft 139 kts 244°
2026-05-07 16:51 49.65708 6.29447 1990 ft 138 kts 244°
2026-05-07 16:51 49.65232 6.28174 1795 ft 136 kts 243°
2026-05-07 16:51 49.64756 6.26901 1623 ft 137 kts 243°
2026-05-07 16:52 49.64284 6.25633 1472 ft 136 kts 243°
2026-05-07 16:52 49.63825 6.24357 1351 ft 137 kts 243°
2026-05-07 16:52 49.63362 6.23088 1226 ft 134 kts 242°
2026-05-07 16:52 49.62967 6.22021 1224 ft 90 kts 240°
2026-05-07 16:53 49.62746 6.21426 1232 ft 33 kts 240°
2026-05-07 16:53 49.62674 6.21207 1249 ft 15 kts 250°
2026-05-07 16:53 49.62704 6.21148 1244 ft 8 kts
2026-05-07 16:53 49.62749 6.21188 1244 ft 7 kts 31°
2026-05-07 16:54 49.62791 6.21226 1248 ft 7 kts 30°
2026-05-07 16:54 49.62830 6.21261 1243 ft 5 kts 30°
2026-05-07 16:54 49.62865 6.21292 1245 ft 5 kts 30°
2026-05-07 16:54 49.62869 6.21296 1246 ft 0 kts 31°
2026-05-07 16:55 49.62884 6.21309 1242 ft 8 kts 30°
2026-05-07 16:56 49.62935 6.21334 1238 ft 7 kts 11°
2026-05-07 16:56 49.62978 6.21349 1238 ft 6 kts 26°
2026-05-07 16:56 49.63036 6.21510 1247 ft 9 kts 64°
2026-05-07 16:57 49.63060 6.21588 1242 ft 8 kts 64°
2026-05-07 16:57 49.63094 6.21698 1249 ft 13 kts 64°
2026-05-07 16:57 49.63109 6.21744 1249 ft 1 kts 65°
2026-05-07 16:57 49.63119 6.21778 1241 ft 10 kts 65°
2026-05-07 16:58 49.63151 6.21881 1246 ft 9 kts 60°
2026-05-07 16:58 49.63200 6.21896 1238 ft 7 kts 337°
2026-05-07 16:58 49.63238 6.21862 1250 ft 6 kts 330°
2026-05-07 16:58 49.63268 6.21836 1238 ft 4 kts 330°
2026-05-07 16:59 49.63292 6.21815 1249 ft 3 kts 330°
2026-05-07 16:59 49.63310 6.21770 1238 ft 5 kts 268°
2026-05-07 16:59 49.63296 6.21719 1241 ft 6 kts 241°
2026-05-07 16:59 49.63290 6.21674 1244 ft 3 kts 309°
2026-05-07 17:00 49.63305 6.21663 1250 ft 2 kts 335°
2026-05-07 17:00 49.63316 6.21655 1242 ft 2 kts 333°
2026-05-07 17:00 49.63325 6.21647 1242 ft 1 kts 331°
2026-05-07 17:00 49.63331 6.21642 1247 ft 1 kts 331°
2026-05-07 17:01 49.63335 6.21639 1247 ft 1 kts 331°